Trinidad, Colorado, United States (81082)
Lat: 37.17N, Lon: 104.5W
Wx Zone: COZ088
Local Info
Past Weather Observations for Tuesday, May 26, 2015

NOTE: This archive is for the closest National Weather Service station to Trinidad. Information may differ from the station used for current weather conditions.

Click here for Long-term Archive

Time Weather Temperature Dewpoint Humidity Pressure Winds Precip Visibility
23:54
Partly Cloudy
52°F / 11°C 46°F / 8°C 82% 30.12 in
(1020 mb)
NW 6.9 mph
(NW 11 kph)
- 10SM
22:54
Clear
52°F / 11°C 46°F / 8°C 82% 30.12 in
(1020 mb)
SSW 5.8 mph
(SSW 9 kph)
- 10SM
21:54
Clear
54°F / 12°C 46°F / 8°C 77% 30.12 in
(1020 mb)
S 5.8 mph
(S 9 kph)
- 10SM
20:54
Clear
55°F / 13°C 48°F / 9°C 77% 30.12 in
(1020 mb)
SSE 9.2 mph
(SSE 15 kph)
- 10SM
19:54
Clear
57°F / 14°C 50°F / 10°C 77% 30.09 in
(1019 mb)
SE 8.1 mph
(SE 13 kph)
0.01 in
(0.25 mm)
10SM
19:03
Overcast
Light Rain
61°F / 16°C 48°F / 9°C 63% 30.06 in
(1018 mb)
SSE 9.2 mph
(SSE 15 kph)
0.01 in
(0.25 mm)
10SM
18:54
Mostly Cloudy
Thunder Storms
61°F / 16°C 48°F / 9°C 63% 30.06 in
(1018 mb)
S 8.1 mph
(S 13 kph)
0.01 in
(0.25 mm)
10SM
18:15
Overcast
61°F / 16°C 46°F / 8°C 59% 30.06 in
(1018 mb)
SE 9.2 mph
(SE 15 kph)
0.00 in
(0.00 mm)
10SM
17:54
Overcast
Thunder Storms
63°F / 17°C 48°F / 9°C 59% 30.04 in
(1017 mb)
SE 11.5 mph
(SE 19 kph)
0.01 in
(0.25 mm)
9SM
17:40
Overcast
Thunder Storms
63°F / 17°C 48°F / 9°C 59% 30.04 in
(1017 mb)
SE 10.4 mph
(SE 17 kph)
0.00 in
(0.00 mm)
10SM
17:16
Overcast
Thunder Storms
64°F / 18°C 46°F / 8°C 52% 30.04 in
(1017 mb)
SE 13.8 mph
(SE 22 kph)
0.00 in
(0.00 mm)
10SM
16:54
Mostly Cloudy
Light Rain
66°F / 19°C 46°F / 8°C 49% 30.04 in
(1017 mb)
SE 16.1 mph
(SE 26 kph)
0.00 in
(0.00 mm)
10SM
15:54
Clear
Light Rain
72°F / 22°C 45°F / 7°C 38% 30.04 in
(1017 mb)
SE 18.4 mph
(SE 30 kph)
0.00 in
(0.00 mm)
10SM
14:54
Clear
70°F / 21°C 43°F / 6°C 38% 30.06 in
(1018 mb)
SE 8.1 mph
(SE 13 kph)
- 10SM
13:54
Clear
70°F / 21°C 45°F / 7°C 40% 30.06 in
(1018 mb)
ESE 8.1 mph
(ESE 13 kph)
- 10SM
12:54
Clear
68°F / 20°C 45°F / 7°C 43% 30.06 in
(1018 mb)
Variable 3.5 mph
(Variable 6 kph)
- 10SM
11:54
Mostly Cloudy
66°F / 19°C 45°F / 7°C 46% 30.09 in
(1019 mb)
Variable 3.5 mph
(Variable 6 kph)
- 10SM
10:54
Partly Cloudy
64°F / 18°C 46°F / 8°C 52% 30.09 in
(1019 mb)
Variable 5.8 mph
(Variable 9 kph)
- 10SM
09:54
Clear
63°F / 17°C 46°F / 8°C 56% 30.09 in
(1019 mb)
E 6.9 mph
(E 11 kph)
- 10SM
09:26
Clear
61°F / 16°C 45°F / 7°C 55% 30.09 in
(1019 mb)
Variable 3.5 mph
(Variable 6 kph)
- 10SM
09:17
Clear
Hazy
61°F / 16°C 46°F / 8°C 59% 30.09 in
(1019 mb)
Variable 4.6 mph
(Variable 7 kph)
- 2 1/2SM
08:54
Clear
59°F / 15°C 45°F / 7°C 59% 30.09 in
(1019 mb)
SE 5.8 mph
(SE 9 kph)
- 10SM
07:54
Clear
55°F / 13°C 45°F / 7°C 67% 30.09 in
(1019 mb)
Calm - 10SM
06:54
Clear
52°F / 11°C 45°F / 7°C 77% 30.09 in
(1019 mb)
SSW 11.5 mph
(SSW 19 kph)
- 10SM
05:54
Clear
46°F / 8°C 43°F / 6°C 87% 30.09 in
(1019 mb)
SSW 10.4 mph
(SSW 17 kph)
- 10SM
04:54
Clear
43°F / 6°C 39°F / 4°C 87% 30.06 in
(1018 mb)
SSW 11.5 mph
(SSW 19 kph)
- 10SM
03:54
Clear
43°F / 6°C 39°F / 4°C 87% 30.06 in
(1018 mb)
SSW 8.1 mph
(SSW 13 kph)
- 10SM
02:54
Clear
43°F / 6°C 39°F / 4°C 87% 30.04 in
(1017 mb)
SSW 8.1 mph
(SSW 13 kph)
- 10SM
01:54
Clear
43°F / 6°C 39°F / 4°C 87% 30.04 in
(1017 mb)
SSW 8.1 mph
(SSW 13 kph)
- 10SM
00:54
Clear
45°F / 7°C 41°F / 5°C 87% 30.04 in
(1017 mb)
SSW 9.2 mph
(SSW 15 kph)
- 10SM
Time Weather Temperature Dewpoint Humidity Pressure Winds Precip Visibility


Weather for websites

WeatherForYou.com, LLC is not responsible for any damages or problems caused by this service. Current weather conditions are obtained from the closest station including government and personal stations which may have varying degrees of accuracy. Weather forecasts are derived from the NOAA NDFD. Like all things, this site belongs to Jesus Christ... He just trusts us to maintain it. If you have any questions or comments email webmaster@weatherforyou.com

Copyright © 2015, WeatherForYou.com LLC. All rights reserved.